Location: Cutler
(25.6150°N, 80.3110°W)
Time: 20:03:00
(UTC-05:00)

ISS - Visible Passes

Search period start: 18 November 2017 00:00
Search period end: 28 November 2017 00:00
Orbit: 402 x 407 km, 51.6° (Epoch: 19 November)

Date Brightness Start Highest point End Pass type
(mag) Time Alt. Az. Time Alt. Az. Time Alt. Az.
18 Nov -2.2 05:42:06 11° NNW 05:44:54 30° NE 05:47:50 10° ESE visible
19 Nov -1.2 04:52:26 15° NE 04:52:33 15° NE 04:54:30 10° ENE visible
20 Nov -4.0 05:35:31 32° NW 05:36:51 75° SW 05:40:05 10° SE visible
21 Nov -1.6 04:45:58 25° E 04:45:58 25° E 04:47:40 10° ESE visible
22 Nov -2.1 05:29:10 20° SW 05:29:10 20° SW 05:31:07 10° S visible
22 Nov -2.4 18:47:00 10° S 18:49:13 24° SE 18:49:13 24° SE visible
23 Nov -1.5 17:56:37 10° SE 17:57:38 11° SE 17:58:39 10° ESE visible
23 Nov -1.3 19:30:47 10° WSW 19:32:20 22° W 19:32:20 22° W visible
24 Nov -3.9 18:38:12 10° SW 18:41:28 87° NW 18:42:40 36° NE visible
25 Nov -1.0 19:24:08 10° WNW 19:25:36 13° NW 19:25:36 13° NW visible
26 Nov -2.0 18:30:28 10° WSW 18:33:16 26° NW 18:35:45 12° NNE visible
